Regional Weather Roundup
Issued by NWS

Home | Current Version | Previous Version | Text Only | Print | Product List | Glossary Off
Versions: 1 2 3 4 5 6 7 8 9 10 11 12 13 14 15 16 17 18 19 20 21 22 23 24 25 26 27

000
ASUS43 KDMX 222207
RWRIA

WEATHER ROUNDUP FOR IOWA
NATIONAL WEATHER SERVICE DES MOINES IA
500 PM CDT TUE APR 22 2014

NOTE: "FAIR" INDICATES FEW OR NO CLOUDS BELOW 12,000 FEET WITH NO
SIGNIFICANT WEATHER AND/OR OBSTRUCTIONS TO VISIBILITY.

* - THESE STATIONS ARE NOT NWS STATIONS...THUS NOT UNDER NWS
QUALITY CONTROL.  THEY ALSO DO NOT REPORT WEATHER SUCH
AS PRECIPITATION OR FOG.

IAZ001>003-012>014-020>022-031>034-043>046-222300-
   NORTHWEST IOWA

CITY           SKY/WX    TMP DP  RH WIND       PRES   REMARKS
CARROLL *      SUNNY     63  30  29 CALM      30.03F
CHEROKEE *     SUNNY     66  32  28 S3        30.01F
DENISON *      MOSUNNY   64  34  32 SE8       30.02F
LE MARS *      MOSUNNY   66  32  28 SE10G17   30.00F
ORANGE CITY *  MOSUNNY   66  27  22 SE5       30.00F
SHELDON *      PTSUNNY   64  32  29 SE9       30.00F
SIOUX CITY     PTSUNNY   68  33  27 SE13      29.99F
SPENCER        SUNNY     65  32  29 S5        30.03F
STORM LAKE *   SUNNY     63  32  31 E5        30.04F
$$

IAZ055>058-069>071-079>083-090>094-222300-
   SOUTHWEST IOWA

CITY           SKY/WX    TMP DP  RH WIND       PRES   REMARKS
ATLANTIC *     SUNNY     64  34  32 CALM      30.02F
AUDUBON *      SUNNY     66  18  15 NE3       30.04F
CLARINDA *     SUNNY     68  30  24 VRB7      30.04F
COUNCIL BLFS * SUNNY     66  34  30 E9        30.01F
CRESTON *      SUNNY     64  30  27 N7        30.05S
HARLAN  *      SUNNY     66  32  28 CALM      30.06F
LAMONI         SUNNY     66  32  28 NW7       30.04F
RED OAK *      SUNNY     66  36  32 VRB5G12   30.02F
SHENANDOAH *   SUNNY     68  34  28 VRB6      30.02F
$$

IAZ047>049-059>061-072>074-084-222300-
   CENTRAL IOWA

CITY           SKY/WX    TMP DP  RH WIND       PRES   REMARKS
AMES           SUNNY     64  31  28 N9        30.05S
ANKENY *       SUNNY     64  32  29 VRB3G14   30.04F
CHARITON *     SUNNY     63  30  29 N8        30.04F
DES MOINES     MOSUNNY   66  31  27 E7        30.04F
GRINNELL*      SUNNY     63  28  27 N9        30.04F
KNOXVILLE *    SUNNY     63  28  27 N7        30.03F
MARSHALLTOWN   SUNNY     61  32  33 N8G20     30.04F
NEWTON *       SUNNY     63  30  29 N13       30.04F
PELLA *        SUNNY     66  34  30 N9        30.05F
PERRY *          N/A     64  25  22 E5        30.04F
$$

IAZ004>006-015-016-023>025-035-036-222300-
   NORTH CENTRAL IOWA

CITY           SKY/WX    TMP DP  RH WIND       PRES   REMARKS
ALGONA *       SUNNY     61  32  33 VRB7      30.05F
CLARION *      SUNNY     61  34  36 VRB6      30.05F
ESTHERVILLE    SUNNY     63  32  31 CALM      30.03F
FORT DODGE *   SUNNY     61  36  39 NW3       30.06F
MASON CITY     SUNNY     60  33  36 N7        30.06S
FOREST CITY *  SUNNY     59  32  36 N8        30.05S
IOWA FALLS *     N/A     61  32  33 N5        30.06S
$$

IAZ007>011-017>019-026>030-037>042-050>054-066-222300-
   NORTHEAST IOWA

CITY           SKY/WX    TMP DP  RH WIND       PRES   REMARKS
CEDAR RAPIDS   SUNNY     61  31  32 NW16G22   30.02F
CHARLES CITY * SUNNY     57  36  44 N14G20    30.05R
CLINTON *      PTSUNNY   59  25  27 N15       30.03R
DECORAH *      SUNNY     55  30  38 N13G21    30.02S
DUBUQUE        PTSUNNY   58  26  29 NW18      30.00F
MONTICELLO *   SUNNY     61  28  29 NW15      30.01S
OELWEIN *      SUNNY    N/A N/A N/A N15G22    30.03F
WATERLOO       SUNNY     60  32  34 N12       30.04F
$$

IAZ064-065-067-068-078-222300-
   EAST CENTRAL IOWA

CITY           SKY/WX    TMP DP  RH WIND       PRES   REMARKS
DAVENPORT      MOSUNNY   64  25  22 N16       30.00F
IOWA CITY      SUNNY     62  30  29 N9        30.04S
MT. PLEASANT * SUNNY     64  23  20 N16       30.02F
MUSCATINE *    SUNNY     64  27  24 NW17      30.01F
QUAD CITIES    MOSUNNY   64  27  24 N13       29.99F
$$

IAZ062-063-075>077-085>089-095>099-222300-
   SOUTHEAST IOWA

CITY           SKY/WX    TMP DP  RH WIND       PRES   REMARKS
BURLINGTON     SUNNY     64  27  24 N20       30.01F
FAIRFIELD *    SUNNY     64  30  27 NW12      30.03F
FORT MADISON * SUNNY     64  30  27 N14G20    30.02S
KEOKUK *       SUNNY     64  32  29 N12G17    30.01S
OSKALOOSA *      N/A     64  32  29 N8        30.04F
CENTERVILLE *  SUNNY     63  32  31 N9        30.05F
OTTUMWA        SUNNY     64  31  28 N9        30.03F
WASHINGTON *   SUNNY     64  28  25 N15       30.02F
$$

ABBREVIATIONS USED IN REMARKS
   TC - TEMPERATURES IN CELSIUS
  WCI - WIND CHILL INDEX
   HX - HEAT INDEX
  VSB - VISIBILITY
$$




USA.gov is the U.S. government's official web portal to all federal, state and local government web resources and services.